{"data":{"norad_id":57379,"epoch":"2026-09-20T03:59:15.858528Z","epoch_age_seconds":153155,"freshness":"FRESH","line1":"1 57379U 23099BD  26263.16615577  .00000429  00000+0  25098-4 0  9993","line2":"2 57379  43.0009 219.8227 0000967 261.3237  98.7505 15.27574002175983","mean_motion":15.27574002,"eccentricity":9.67e-5,"inclination_deg":43.0009,"raan_deg":219.8227,"arg_perigee_deg":261.3237,"mean_anomaly_deg":98.7505,"bstar":2.5098e-5,"rev_number":17598,"period_min":94.267118850848,"perigee_km":482.40357783595,"apogee_km":483.73053470043,"semimajor_km":6861.2040562682,"source":"CELESTRAK","updated_at":"2026-09-21T09:00:33.622209Z"}}